Location: McFarlands Corners
(41.4117°N, 81.3382°W)
Time: 18:45:40
(UTC+00:00)

Tiros 1 - Pass Details

Date: 21 February 2026
Orbit: 618 x 649 km, 48.4° (Epoch: 10 March)

Event Time Altitude Azimuth Distance (km) Brightness Sun altitude
Rises 10:52:42 0° 187° (S) 2,920 10.5 -15.5°
Reaches altitude 10° 10:56:05 10° 161° (SSE) 2,009 9.9 -14.9°
Maximum altitude 10:58:23 14° 131° (SE) 1,772 10.1 -14.5°
Drops below altitude 10° 11:00:41 10° 101° (ESE) 2,005 11.1 -14.0°
Sets 11:04:03 0° 76° (ENE) 2,909 12.1 -13.4°
